![]() |
EMODnet Physics ERDDAP
Easier access to scientific data |
log in|
Brought to you by EMODnet Physics |
| Dataset Title: | NDBC - Collection of dew point temperature (DEWT) TimeSeries - IN SITU MultiPointTimeSeriesObservation
|
| Institution: | NDBC (Dataset ID: TS_DEWT_NDBC) |
| Information: | Summary
| License
| FGDC
| ISO 19115
| Metadata
| Background
| Subset
| Data Access Form
| Make a graph
|
| Name | Last modified | Size | Description | |
|---|---|---|---|---|
| Parent Directory | - | - | ||
| 51201_TS_DEWT_012005.nc | 18-Nov-2024 10:58 | 1624924 | ||
| 51201_TS_DEWT_012006.nc | 18-Nov-2024 11:45 | 1473396 | ||
| 51201_TS_DEWT_012007.nc | 18-Nov-2024 12:36 | 1626674 | ||
| 51201_TS_DEWT_012008.nc | 18-Nov-2024 13:33 | 1626894 | ||
| 51201_TS_DEWT_012009.nc | 18-Nov-2024 14:27 | 1626869 | ||
| 51201_TS_DEWT_012010.nc | 18-Nov-2024 15:23 | 1626730 | ||
| 51201_TS_DEWT_012011.nc | 18-Nov-2024 16:23 | 1625032 | ||
| 51201_TS_DEWT_012012.nc | 18-Nov-2024 17:18 | 1468529 | ||
| 51201_TS_DEWT_012013.nc | 18-Nov-2024 18:17 | 1626632 | ||
| 51201_TS_DEWT_012014.nc | 18-Nov-2024 19:13 | 1626704 | ||
| 51201_TS_DEWT_012015.nc | 18-Nov-2024 20:10 | 1476907 | ||
| 51201_TS_DEWT_012016.nc | 18-Nov-2024 21:00 | 1625574 | ||
| 51201_TS_DEWT_012017.nc | 18-Nov-2024 21:49 | 1626893 | ||
| 51201_TS_DEWT_012018.nc | 18-Nov-2024 22:36 | 1626298 | ||
| 51201_TS_DEWT_012019.nc | 18-Nov-2024 22:59 | 1474875 | ||
| 51201_TS_DEWT_012020.nc | 18-Nov-2024 23:50 | 1626917 | ||
| 51201_TS_DEWT_012021.nc | 19-Nov-2024 00:44 | 1832117 | ||
| 51201_TS_DEWT_012022.nc | 19-Nov-2024 01:31 | 1826748 | ||
| 51201_TS_DEWT_012023.nc | 19-Nov-2024 02:29 | 1826507 | ||
| 51201_TS_DEWT_012024.nc | 19-Nov-2024 03:09 | 1827121 | ||
| 51201_TS_DEWT_022005.nc | 18-Nov-2024 11:01 | 1826974 | ||
| 51201_TS_DEWT_022006.nc | 18-Nov-2024 11:49 | 1678516 | ||
| 51201_TS_DEWT_022007.nc | 18-Nov-2024 12:40 | 1830465 | ||
| 51201_TS_DEWT_022008.nc | 18-Nov-2024 13:39 | 1832260 | ||
| 51201_TS_DEWT_022009.nc | 18-Nov-2024 14:32 | 1833986 | ||
| 51201_TS_DEWT_022010.nc | 18-Nov-2024 15:27 | 3408365 | ||
| 51201_TS_DEWT_022011.nc | 18-Nov-2024 16:28 | 3652868 | ||
| 51201_TS_DEWT_022012.nc | 18-Nov-2024 17:23 | 1648152 | ||
| 51201_TS_DEWT_022013.nc | 18-Nov-2024 18:22 | 1660780 | ||
| 51201_TS_DEWT_022014.nc | 18-Nov-2024 19:18 | 1651277 | ||
| 51201_TS_DEWT_022015.nc | 18-Nov-2024 20:15 | 1655370 | ||
| 51201_TS_DEWT_022016.nc | 18-Nov-2024 21:04 | 1655447 | ||
| 51201_TS_DEWT_022017.nc | 18-Nov-2024 21:51 | 1657163 | ||
| 51201_TS_DEWT_022018.nc | 18-Nov-2024 22:41 | 1655217 | ||
| 51201_TS_DEWT_022019.nc | 18-Nov-2024 23:03 | 1655803 | ||
| 51201_TS_DEWT_022020.nc | 18-Nov-2024 23:55 | 1654405 | ||
| 51201_TS_DEWT_022022.nc | 19-Nov-2024 01:35 | 3445764 | ||
| 51201_TS_DEWT_022023.nc | 19-Nov-2024 02:34 | 4880679 | ||
| 51201_TS_DEWT_032005.nc | 18-Nov-2024 11:04 | 1708396 | ||
| 51201_TS_DEWT_032006.nc | 18-Nov-2024 11:53 | 1666022 | ||
| 51201_TS_DEWT_032007.nc | 18-Nov-2024 12:45 | 1820842 | ||
| 51201_TS_DEWT_032008.nc | 18-Nov-2024 13:44 | 1821732 | ||
| 51201_TS_DEWT_032009.nc | 18-Nov-2024 14:37 | 1830536 | ||
| 51201_TS_DEWT_032010.nc | 18-Nov-2024 15:32 | 1828256 | ||
| 51201_TS_DEWT_032011.nc | 18-Nov-2024 16:32 | 1678993 | ||
| 51201_TS_DEWT_032012.nc | 18-Nov-2024 17:28 | 1316331 | ||
| 51201_TS_DEWT_032013.nc | 18-Nov-2024 18:28 | 1835254 | ||
| 51201_TS_DEWT_032014.nc | 18-Nov-2024 19:23 | 1836907 | ||
| 51201_TS_DEWT_032015.nc | 18-Nov-2024 20:20 | 4299133 | ||
| 51201_TS_DEWT_032016.nc | 18-Nov-2024 21:07 | 3899089 | ||
| 51201_TS_DEWT_032017.nc | 18-Nov-2024 21:55 | 1678697 | ||
| 51201_TS_DEWT_032019.nc | 18-Nov-2024 23:06 | 1661664 | ||
| 51201_TS_DEWT_032020.nc | 19-Nov-2024 00:00 | 1664039 | ||
| 51201_TS_DEWT_032021.nc | 19-Nov-2024 00:49 | 1672409 | ||
| 51201_TS_DEWT_032022.nc | 19-Nov-2024 01:41 | 1677747 | ||
| 51201_TS_DEWT_042005.nc | 18-Nov-2024 11:08 | 1679060 | ||
| 51201_TS_DEWT_042006.nc | 18-Nov-2024 11:56 | 1666248 | ||
| 51201_TS_DEWT_042007.nc | 18-Nov-2024 12:50 | 1659519 | ||
| 51201_TS_DEWT_042008.nc | 18-Nov-2024 13:48 | 1674798 | ||
| 51201_TS_DEWT_042009.nc | 18-Nov-2024 14:41 | 1675361 | ||
| 51201_TS_DEWT_042010.nc | 18-Nov-2024 15:37 | 4906825 | ||
| 51201_TS_DEWT_042011.nc | 18-Nov-2024 16:36 | 1837488 | ||
| 51201_TS_DEWT_042012.nc | 18-Nov-2024 17:33 | 1669475 | ||
| 51201_TS_DEWT_042013.nc | 18-Nov-2024 18:32 | 1790160 | ||
| 51201_TS_DEWT_042014.nc | 18-Nov-2024 19:28 | 1833138 | ||
| 51201_TS_DEWT_042015.nc | 18-Nov-2024 20:25 | 1832623 | ||
| 51201_TS_DEWT_042016.nc | 18-Nov-2024 21:11 | 1825114 | ||
| 51201_TS_DEWT_042017.nc | 18-Nov-2024 21:59 | 1672279 | ||
| 51201_TS_DEWT_042019.nc | 18-Nov-2024 23:11 | 1655513 | ||
| 51201_TS_DEWT_042020.nc | 19-Nov-2024 00:05 | 1835484 | ||
| 51201_TS_DEWT_042021.nc | 19-Nov-2024 00:52 | 1837504 | ||
| 51201_TS_DEWT_042022.nc | 19-Nov-2024 01:47 | 2646011 | ||
| 51201_TS_DEWT_042023.nc | 19-Nov-2024 02:39 | 1671653 | ||
| 51201_TS_DEWT_052005.nc | 18-Nov-2024 11:13 | 1674356 | ||
| 51201_TS_DEWT_052006.nc | 18-Nov-2024 12:00 | 1632507 | ||
| 51201_TS_DEWT_052007.nc | 18-Nov-2024 12:55 | 1679854 | ||
| 51201_TS_DEWT_052008.nc | 18-Nov-2024 13:54 | 1672159 | ||
| 51201_TS_DEWT_052009.nc | 18-Nov-2024 14:46 | 1668567 | ||
| 51201_TS_DEWT_052010.nc | 18-Nov-2024 15:42 | 1669080 | ||
| 51201_TS_DEWT_052011.nc | 18-Nov-2024 16:41 | 1676294 | ||
| 51201_TS_DEWT_052012.nc | 18-Nov-2024 17:39 | 1679949 | ||
| 51201_TS_DEWT_052013.nc | 18-Nov-2024 18:36 | 1675542 | ||
| 51201_TS_DEWT_052014.nc | 18-Nov-2024 19:32 | 2442998 | ||
| 51201_TS_DEWT_052015.nc | 18-Nov-2024 20:29 | 1832057 | ||
| 51201_TS_DEWT_052016.nc | 18-Nov-2024 21:14 | 1674435 | ||
| 51201_TS_DEWT_052017.nc | 18-Nov-2024 22:03 | 1649026 | ||
| 51201_TS_DEWT_052019.nc | 18-Nov-2024 23:14 | 1647975 | ||
| 51201_TS_DEWT_052020.nc | 19-Nov-2024 00:09 | 1678879 | ||
| 51201_TS_DEWT_052021.nc | 19-Nov-2024 00:56 | 1674753 | ||
| 51201_TS_DEWT_052022.nc | 19-Nov-2024 01:52 | 1649901 | ||
| 51201_TS_DEWT_052023.nc | 19-Nov-2024 02:44 | 1816471 | ||
| 51201_TS_DEWT_062005.nc | 18-Nov-2024 11:17 | 1832356 | ||
| 51201_TS_DEWT_062006.nc | 18-Nov-2024 12:03 | 1829148 | ||
| 51201_TS_DEWT_062007.nc | 18-Nov-2024 13:00 | 1781164 | ||
| 51201_TS_DEWT_062008.nc | 18-Nov-2024 13:58 | 1829792 | ||
| 51201_TS_DEWT_062009.nc | 18-Nov-2024 14:51 | 1828337 | ||
| 51201_TS_DEWT_062010.nc | 18-Nov-2024 15:47 | 1820986 | ||
| 51201_TS_DEWT_062011.nc | 18-Nov-2024 16:46 | 1833006 | ||
| 51201_TS_DEWT_062012.nc | 18-Nov-2024 17:43 | 1654294 | ||
| 51201_TS_DEWT_062013.nc | 18-Nov-2024 18:41 | 1671612 | ||
| 51201_TS_DEWT_062014.nc | 18-Nov-2024 19:38 | 1827680 | ||
| 51201_TS_DEWT_062015.nc | 18-Nov-2024 20:33 | 1831633 | ||
| 51201_TS_DEWT_062016.nc | 18-Nov-2024 21:19 | 1832094 | ||
| 51201_TS_DEWT_062017.nc | 18-Nov-2024 22:08 | 1829093 | ||
| 51201_TS_DEWT_062019.nc | 18-Nov-2024 23:19 | 3458649 | ||
| 51201_TS_DEWT_062020.nc | 19-Nov-2024 00:12 | 1666833 | ||
| 51201_TS_DEWT_062021.nc | 19-Nov-2024 00:59 | 1678004 | ||
| 51201_TS_DEWT_062022.nc | 19-Nov-2024 01:57 | 1663686 | ||
| 51201_TS_DEWT_062023.nc | 19-Nov-2024 02:49 | 1674150 | ||
| 51201_TS_DEWT_072005.nc | 18-Nov-2024 11:21 | 1676832 | ||
| 51201_TS_DEWT_072006.nc | 18-Nov-2024 12:07 | 1665647 | ||
| 51201_TS_DEWT_072007.nc | 18-Nov-2024 13:05 | 1672067 | ||
| 51201_TS_DEWT_072008.nc | 18-Nov-2024 14:03 | 1675345 | ||
| 51201_TS_DEWT_072009.nc | 18-Nov-2024 14:56 | 1677885 | ||
| 51201_TS_DEWT_072010.nc | 18-Nov-2024 15:52 | 1676124 | ||
| 51201_TS_DEWT_072011.nc | 18-Nov-2024 16:52 | 5004651 | ||
| 51201_TS_DEWT_072012.nc | 18-Nov-2024 17:48 | 1833242 | ||
| 51201_TS_DEWT_072013.nc | 18-Nov-2024 18:46 | 1835589 | ||
| 51201_TS_DEWT_072014.nc | 18-Nov-2024 19:42 | 1671541 | ||
| 51201_TS_DEWT_072015.nc | 18-Nov-2024 20:38 | 1829461 | ||
| 51201_TS_DEWT_072016.nc | 18-Nov-2024 21:24 | 1830933 | ||
| 51201_TS_DEWT_072017.nc | 18-Nov-2024 22:11 | 1674009 | ||
| 51201_TS_DEWT_072019.nc | 18-Nov-2024 23:24 | 1826106 | ||
| 51201_TS_DEWT_072020.nc | 19-Nov-2024 00:17 | 1824121 | ||
| 51201_TS_DEWT_072021.nc | 19-Nov-2024 01:03 | 1750637 | ||
| 51201_TS_DEWT_072022.nc | 19-Nov-2024 02:01 | 1834473 | ||
| 51201_TS_DEWT_082005.nc | 18-Nov-2024 11:25 | 5524467 | ||
| 51201_TS_DEWT_082006.nc | 18-Nov-2024 12:12 | 1679024 | ||
| 51201_TS_DEWT_082007.nc | 18-Nov-2024 13:09 | 1660808 | ||
| 51201_TS_DEWT_082008.nc | 18-Nov-2024 14:07 | 1648571 | ||
| 51201_TS_DEWT_082009.nc | 18-Nov-2024 15:02 | 1670933 | ||
| 51201_TS_DEWT_082010.nc | 18-Nov-2024 15:57 | 1676845 | ||
| 51201_TS_DEWT_082011.nc | 18-Nov-2024 16:56 | 1660057 | ||
| 51201_TS_DEWT_082012.nc | 18-Nov-2024 17:53 | 1662533 | ||
| 51201_TS_DEWT_082013.nc | 18-Nov-2024 18:50 | 1675573 | ||
| 51201_TS_DEWT_082014.nc | 18-Nov-2024 19:47 | 1680376 | ||
| 51201_TS_DEWT_082015.nc | 18-Nov-2024 20:43 | 1675483 | ||
| 51201_TS_DEWT_082016.nc | 18-Nov-2024 21:30 | 5960326 | ||
| 51201_TS_DEWT_082017.nc | 18-Nov-2024 22:15 | 5615093 | ||
| 51201_TS_DEWT_082019.nc | 18-Nov-2024 23:29 | 1823664 | ||
| 51201_TS_DEWT_082020.nc | 19-Nov-2024 00:22 | 1832151 | ||
| 51201_TS_DEWT_082021.nc | 19-Nov-2024 01:08 | 1827604 | ||
| 51201_TS_DEWT_082022.nc | 19-Nov-2024 02:06 | 1831964 | ||
| 51201_TS_DEWT_082023.nc | 19-Nov-2024 02:53 | 1681012 | ||
| 51201_TS_DEWT_092004.nc | 18-Nov-2024 10:39 | 1674367 | ||
| 51201_TS_DEWT_092005.nc | 18-Nov-2024 11:29 | 1833520 | ||
| 51201_TS_DEWT_092006.nc | 18-Nov-2024 12:16 | 1834118 | ||
| 51201_TS_DEWT_092007.nc | 18-Nov-2024 13:14 | 1673284 | ||
| 51201_TS_DEWT_092008.nc | 18-Nov-2024 14:12 | 1653360 | ||
| 51201_TS_DEWT_092009.nc | 18-Nov-2024 15:06 | 5260958 | ||
| 51201_TS_DEWT_092010.nc | 18-Nov-2024 16:02 | 5724743 | ||
| 51201_TS_DEWT_092011.nc | 18-Nov-2024 17:01 | 434679 | ||
| 51201_TS_DEWT_092012.nc | 18-Nov-2024 17:57 | 445389 | ||
| 51201_TS_DEWT_092013.nc | 18-Nov-2024 18:55 | 423508 | ||
| 51201_TS_DEWT_092014.nc | 18-Nov-2024 19:52 | 432959 | ||
| 51201_TS_DEWT_092015.nc | 18-Nov-2024 20:47 | 420617 | ||
| 51201_TS_DEWT_092016.nc | 18-Nov-2024 21:34 | 434547 | ||
| 51201_TS_DEWT_092017.nc | 18-Nov-2024 22:20 | 421954 | ||
| 51201_TS_DEWT_092019.nc | 18-Nov-2024 23:33 | 428323 | ||
| 51201_TS_DEWT_092020.nc | 19-Nov-2024 00:27 | 432214 | ||
| 51201_TS_DEWT_092021.nc | 19-Nov-2024 01:13 | 438300 | ||
| 51201_TS_DEWT_092022.nc | 19-Nov-2024 02:10 | 426180 | ||
| 51201_TS_DEWT_092023.nc | 19-Nov-2024 02:55 | 441137 | ||
| 51201_TS_DEWT_102004.nc | 18-Nov-2024 10:44 | 429387 | ||
| 51201_TS_DEWT_102005.nc | 18-Nov-2024 11:34 | 451991 | ||
| 51201_TS_DEWT_102006.nc | 18-Nov-2024 12:21 | 451813 | ||
| 51201_TS_DEWT_102007.nc | 18-Nov-2024 13:19 | 431722 | ||
| 51201_TS_DEWT_102009.nc | 18-Nov-2024 15:10 | 445670 | ||
| 51201_TS_DEWT_102010.nc | 18-Nov-2024 16:06 | 451400 | ||
| 51201_TS_DEWT_102011.nc | 18-Nov-2024 17:05 | 433492 | ||
| 51201_TS_DEWT_102012.nc | 18-Nov-2024 18:02 | 448856 | ||
| 51201_TS_DEWT_102013.nc | 18-Nov-2024 19:00 | 450636 | ||
| 51201_TS_DEWT_102014.nc | 18-Nov-2024 19:56 | 440703 | ||
| 51201_TS_DEWT_102015.nc | 18-Nov-2024 20:50 | 433986 | ||
| 51201_TS_DEWT_102016.nc | 18-Nov-2024 21:38 | 422966 | ||
| 51201_TS_DEWT_102017.nc | 18-Nov-2024 22:24 | 450187 | ||
| 51201_TS_DEWT_102018.nc | 18-Nov-2024 22:46 | 448953 | ||
| 51201_TS_DEWT_102019.nc | 18-Nov-2024 23:38 | 440234 | ||
| 51201_TS_DEWT_102020.nc | 19-Nov-2024 00:32 | 442688 | ||
| 51201_TS_DEWT_102021.nc | 19-Nov-2024 01:17 | 450192 | ||
| 51201_TS_DEWT_102022.nc | 19-Nov-2024 02:15 | 430350 | ||
| 51201_TS_DEWT_102023.nc | 19-Nov-2024 02:58 | 432338 | ||
| 51201_TS_DEWT_112004.nc | 18-Nov-2024 10:49 | 446802 | ||
| 51201_TS_DEWT_112005.nc | 18-Nov-2024 11:38 | 433295 | ||
| 51201_TS_DEWT_112006.nc | 18-Nov-2024 12:26 | 423564 | ||
| 51201_TS_DEWT_112007.nc | 18-Nov-2024 13:24 | 447468 | ||
| 51201_TS_DEWT_112008.nc | 18-Nov-2024 14:17 | 434163 | ||
| 51201_TS_DEWT_112009.nc | 18-Nov-2024 15:14 | 444346 | ||
| 51201_TS_DEWT_112010.nc | 18-Nov-2024 16:12 | 433365 | ||
| 51201_TS_DEWT_112011.nc | 18-Nov-2024 17:09 | 428342 | ||
| 51201_TS_DEWT_112012.nc | 18-Nov-2024 18:07 | 432547 | ||
| 51201_TS_DEWT_112013.nc | 18-Nov-2024 19:04 | 440397 | ||
| 51201_TS_DEWT_112014.nc | 18-Nov-2024 20:01 | 433991 | ||
| 51201_TS_DEWT_112015.nc | 18-Nov-2024 20:53 | 442475 | ||
| 51201_TS_DEWT_112016.nc | 18-Nov-2024 21:42 | 433723 | ||
| 51201_TS_DEWT_112018.nc | 18-Nov-2024 22:50 | 436320 | ||
| 51201_TS_DEWT_112019.nc | 18-Nov-2024 23:42 | 427616 | ||
| 51201_TS_DEWT_112020.nc | 19-Nov-2024 00:35 | 429163 | ||
| 51201_TS_DEWT_112021.nc | 19-Nov-2024 01:21 | 441659 | ||
| 51201_TS_DEWT_112022.nc | 19-Nov-2024 02:18 | 422345 | ||
| 51201_TS_DEWT_112023.nc | 19-Nov-2024 03:01 | 439631 | ||
| 51201_TS_DEWT_122004.nc | 18-Nov-2024 10:54 | 422267 | ||
| 51201_TS_DEWT_122005.nc | 18-Nov-2024 11:42 | 421298 | ||
| 51201_TS_DEWT_122006.nc | 18-Nov-2024 12:32 | 433961 | ||
| 51201_TS_DEWT_122007.nc | 18-Nov-2024 13:29 | 426568 | ||
| 51201_TS_DEWT_122008.nc | 18-Nov-2024 14:22 | 438978 | ||
| 51201_TS_DEWT_122009.nc | 18-Nov-2024 15:18 | 434030 | ||
| 51201_TS_DEWT_122010.nc | 18-Nov-2024 16:18 | 423973 | ||
| 51201_TS_DEWT_122011.nc | 18-Nov-2024 17:14 | 450189 | ||
| 51201_TS_DEWT_122012.nc | 18-Nov-2024 18:12 | 433383 | ||
| 51201_TS_DEWT_122013.nc | 18-Nov-2024 19:09 | 426673 | ||
| 51201_TS_DEWT_122014.nc | 18-Nov-2024 20:06 | 419589 | ||
| 51201_TS_DEWT_122015.nc | 18-Nov-2024 20:56 | 422131 | ||
| 51201_TS_DEWT_122016.nc | 18-Nov-2024 21:46 | 422392 | ||
| 51201_TS_DEWT_122017.nc | 18-Nov-2024 22:32 | 422075 | ||
| 51201_TS_DEWT_122018.nc | 18-Nov-2024 22:55 | 421327 | ||
| 51201_TS_DEWT_122019.nc | 18-Nov-2024 23:47 | 424493 | ||
| 51201_TS_DEWT_122020.nc | 19-Nov-2024 00:40 | 423627 | ||
| 51201_TS_DEWT_122021.nc | 19-Nov-2024 01:26 | 424461 | ||
| 51201_TS_DEWT_122022.nc | 19-Nov-2024 02:23 | 424645 | ||
| 51201_TS_DEWT_122023.nc | 19-Nov-2024 03:05 | 420192 | ||